Location: Bodest
(46.3000°N, 22.5667°E)
Time: 13:32:12
(UTC+00:00)

Cosmos 1844 Rocket - Pass Details

Date: 07 June 2022
Orbit: 826 x 843 km, 71.0° (Epoch: 28 June)

Event Time Altitude Azimuth Distance (km) Brightness Sun altitude
Rises 18:52:23 0° 332° (NNW) 3,378 7.4 -5.4°
Reaches altitude 10° 18:54:50 10° 331° (NNW) 2,440 6.5 -5.7°
Maximum altitude 19:00:25 76° 246° (WSW) 853 2.8 -6.4°
Drops below altitude 10° 19:05:57 10° 162° (SSE) 2,421 4.5 -7.1°
Enters shadow 19:07:02 - 161° (SSE) 2,838 4.9 -7.2°
